Regional Weather Roundup
Issued by NWS

Home | Current Version | Previous Version | Graphics & Text | Print | Product List | Glossary On
Versions: 1 2 3 4 5 6 7 8 9 10 11 12 13 14 15 16 17 18 19 20 21 22 23 24 25 26 27 28 29 30 31 32 33 34 35 36 37 38 39 40 41 42 43 44 45 46 47 48 49 50
596
ASUS43 KIND 241859
RWRIN

WEATHER ROUNDUP FOR INDIANA
NATIONAL WEATHER SERVICE INDIANAPOLIS IN
300 PM EDT MON APR 24 2017

NOTE: "FAIR" INDICATES FEW OR NO CLOUDS BELOW 12,000 FEET WITH NO
SIGNIFICANT WEATHER AND/OR OBSTRUCTIONS TO VISIBILITY.

* - STATION DOES NOT REPORT WEATHER SUCH AS PRECIPITATION OR FOG.

+ - STATION NOT QUALITY CONTROLLED BY THE NATIONAL WEATHER SERVICE.
    USE DATA WITH CAUTION...ESPECIALLY DEWPOINT AND RELATIVE
    HUMIDITY OBSERVATIONS.

INZ001>003-010>013-019-020-242000-
NORTHWEST INDIANA

CITY           SKY/WX    TMP DP  RH WIND       PRES   REMARKS
GARY /AIRPORT/ PTSUNNY   66  32  28 CALM      29.93F
KNOX *+        SUNNY    N/A N/A N/A E6        29.92F

$$

LMZ046-743>745-242000-
SOUTHERN LAKE MICHIGAN

STATION/POSITION TIME  TEMP    WIND        PRES    WAVE
                       AIR SEA DIR/SP/G            HT
                 (UTC) (F)     (DEG/KT/KT) (MB)    (FT)
BURNS HARBOR     1840   52      CALM  /  5 1014.2F
MICHIGAN CITY    1830   69     120/  7/  9   N/A

$$

INZ004-005-014>016-021>024-242000-
NORTH CENTRAL INDIANA

CITY           SKY/WX    TMP DP  RH WIND       PRES   REMARKS
GOSHEN         SUNNY     70  35  27 E12       29.93F
PERU/GRISSOM   SUNNY     72  38  28 E15       29.90F
SOUTH BEND     SUNNY     71  28  20 SE16      29.94F

$$

INZ006>009-017-018-025>027-242000-
NORTHEAST INDIANA

CITY           SKY/WX    TMP DP  RH WIND       PRES   REMARKS
ANGOLA *+      SUNNY     70  36  28 E17       29.96F
FORT WAYNE     MOSUNNY   71  35  26 E17G28    29.93F
KENDALLVILLE + SUNNY     69  36  30 E12G20    29.96F

$$

INZ028-029-035-036-043>045-051>053-242000-
WEST CENTRAL INDIANA

CITY           SKY/WX    TMP DP  RH WIND       PRES   REMARKS
CRAWFORDSVL +  SUNNY     72  35  25 NE14      29.88F
LAFAYETTE      NOT AVBL
TERRE HAUTE    SUNNY     74  31  20 E12       29.86F

$$

INZ030>032-037>040-046>048-054>057-064-065-242000-
CENTRAL INDIANA

CITY           SKY/WX    TMP DP  RH WIND       PRES   REMARKS
CP ATTERBURY + SUNNY     72  41  33 NE9G18    29.87F
INDIANAPOLIS   MOSUNNY   75  34  22 E15G23    29.86F
-EAGLE CREEK   SUNNY     75  35  23 NE12G21   29.86F
KOKOMO +       SUNNY     71  38  29 E14G20    29.91F
SHELBYVILLE    SUNNY     78  40  25 E16G23    29.86F

$$

INZ033-034-041-042-049-050-058-059-242000-
EAST CENTRAL INDIANA

CITY           SKY/WX    TMP DP  RH WIND       PRES   REMARKS
MUNCIE         SUNNY     75  32  20 NE17G23   29.89F
RICHMOND +     SUNNY     72  46  40 E13G22    29.89F

$$

INZ060-061-067>069-081>083-085>088-242000-
SOUTHWEST INDIANA

CITY           SKY/WX    TMP DP  RH WIND       PRES   REMARKS
EVANSVILLE     SUNNY     76  41  28 VRB5      29.84F
HUNTINGBURG *+ SUNNY     73  52  47 NE7       29.82F

$$

INZ062-063-066-070>080-084-089>092-242000-
SOUTH CENTRAL AND SOUTHEAST INDIANA

CITY           SKY/WX    TMP DP  RH WIND       PRES   REMARKS
BLOOMINGTON    SUNNY     75  32  20 E10G22    29.84F
MADISON *+     SUNNY     72  43  35 NE12      29.86F
SEYMOUR +      SUNNY     73  45  35 E10       29.84F

$$





USA.gov is the U.S. government's official web portal to all federal, state and local government web resources and services.